SCOUT X-4 DEB, 977

Orbit data source: Space-Track

SCOUT X-4 DEB, 977 is space debris in LEO originally from a launch on Sat, 10 Oct 1964 UTC launched from the Air Force Western Test Range (AFWTR). Debris objects in space refer to the collection of defunct objects orbiting the Earth. Examples of debris include non-operational satellites, rocket bodies, and fragments generated from explosions, collisions, or faulty payload assembly.

Loading next visibility...
Identifier
977, 1964-064D
Orbit
LEO
Country
Flag of USUS
Related business
Manufacturer
APL
Mission
Spacecraft
Bus & Motor
Unknown
Mass
Unknown
Launch date (UTC)
1964-10-10 (61 years ago)
Launch vehicle
Unknown
Launch site
Air Force Western Test Range (AFWTR)
Object type
Payload
Rocket body
Debris
Shape & HBR
Unknown
Radar Cross Section
Small (<0.1 m²)

Expand to show TLE details & history
Last TLE update: 21 hours ago

TLE from 21 hours ago
0 SCOUT X-4 DEB
1 00977U 64064D   25260.52682425  .00000325  00000-0  29204-3 0  9992
2 00977  80.0418  77.5879 0127014 143.3305 217.6622 13.78924880 51858
Epoch: 2025-09-17T12:38Z
TLE epoch observation values (Epoch: 2025-09-17T12:38:37.615Z)
Latitude
-0.00001°
Longitude
-108.77033°
Altitude
1,044.83 km
Speed
7.292 km/s
True Right ascension
05h 10m 21s
True Declination
0° 00' 00"
Sunlit
Object was in daylight at epoch
Visualization orbit readout
Latitude
Unknown
Longitude
Unknown
Altitude
Unknown
Speed
Unknown
Apparent Right ascension
Unknown
Apparent Declination
Unknown
Sunlit
N/A
Visualization observer readout
Local Sidereal Time
02:37:20
Azimuth
Unknown
Elevation
Unknown
Doppler factor
Unknown
Orbital elements
Apogee altitude
1,058.246 km
Perigee altitude
871.71 km
Semi-major axis
7,343.115 km
Eccentricity
0.0127
Inclination
80.0418°
RAAN
77.5879°
Arg. of periapsis
143.3305°
True anomaly
216.78398°
Mean anomaly
217.6622°
Eccentric anomaly
217.22199°
Mean motion
3.44923 °/min
Orbital period
104.37 mins
BSTAR
0.00029204
Loading maneuver chart data...
Computing Atmospheric mass density...
Loading historical data...
Loading historical data...
Loading historical data...
Loading historical data...
Loading historical data...
Loading historical data...
Loading historical data...
Other satellites on launch #64 in the year 1964 (1964-10-10 UTC)

Documentation

Showing up to 5 results
|